• în România
  • Lista ţărilor
  • Pe 7 zile
  • Temperatura apei
  • Hartă satelitară
  • Meteo pe hartă
  • Widget-uri
  • user-avatar
    Intrare

    Meteo pe oră la Zebrzydow

    Astăzi, 22 Octombrie, Luni

    Timp Temperatura Precipitaţii Vânt Presiune Umiditate
    00:00 +7°C° 0 mm 1 m/s 752 mmHg 81%
    01:00 +6°C° 0 mm 1 m/s 752 mmHg 82%
    02:00 +6°C° 0 mm 1 m/s 752 mmHg 82%
    03:00 +6°C° 0 mm 1 m/s 752 mmHg 82%
    04:00 +6°C° 0 mm 1 m/s 752 mmHg 83%
    05:00 +6°C° 0 mm 1 m/s 752 mmHg 83%
    06:00 +6°C° 0 mm 1 m/s 752 mmHg 83%
    07:00 +6°C° 0 mm 1 m/s 752 mmHg 80%
    08:00 +8°C° 0 mm 1 m/s 752 mmHg 73%
    09:00 +9°C° 0 mm 2 m/s 751 mmHg 66%
    10:00 +12°C° 0 mm 2 m/s 751 mmHg 58%
    11:00 +13°C° 0 mm 2 m/s 751 mmHg 55%
    12:00 +13°C° 0 mm 3 m/s 751 mmHg 51%
    13:00 +14°C° 0 mm 3 m/s 750 mmHg 47%
    14:00 +14°C° 0 mm 3 m/s 750 mmHg 51%
    15:00 +13°C° 0 mm 3 m/s 750 mmHg 55%
    16:00 +13°C° 0 mm 3 m/s 750 mmHg 60%
    17:00 +12°C° 0.1 mm 3 m/s 750 mmHg 67%
    18:00 +11°C° 0.1 mm 4 m/s 750 mmHg 75%
    19:00 +10°C° 0.1 mm 4 m/s 751 mmHg 82%
    20:00 +8°C° 0 mm 4 m/s 751 mmHg 81%
    21:00 +8°C° 0 mm 4 m/s 751 mmHg 81%
    22:00 +7°C° 0 mm 4 m/s 752 mmHg 80%
    23:00 +7°C° 0 mm 3 m/s 752 mmHg 82%

    Mâine, 23 Octombrie, Marţi

    Timp Temperatura Precipitaţii Vânt Presiune Umiditate
    00:00 +5°C° 0 mm 3 m/s 752 mmHg 84%
    01:00 +5°C° 0 mm 2 m/s 751 mmHg 86%
    02:00 +5°C° 0 mm 2 m/s 751 mmHg 86%
    03:00 +4°C° 0 mm 3 m/s 751 mmHg 85%
    04:00 +4°C° 0 mm 3 m/s 750 mmHg 85%
    05:00 +4°C° 0 mm 3 m/s 750 mmHg 83%
    06:00 +4°C° 0 mm 4 m/s 749 mmHg 82%
    07:00 +4°C° 0 mm 4 m/s 749 mmHg 80%
    08:00 +5°C° 0 mm 5 m/s 748 mmHg 74%
    09:00 +6°C° 0 mm 7 m/s 747 mmHg 69%
    10:00 +7°C° 0 mm 8 m/s 746 mmHg 63%
    11:00 +7°C° 0.2 mm 8 m/s 745 mmHg 65%
    12:00 +7°C° 0.2 mm 9 m/s 744 mmHg 66%
    13:00 +7°C° 0.2 mm 9 m/s 743 mmHg 68%
    14:00 +7°C° 0.4 mm 10 m/s 743 mmHg 70%
    15:00 +7°C° 0.4 mm 10 m/s 742 mmHg 73%
    16:00 +7°C° 0.4 mm 10 m/s 741 mmHg 75%
    17:00 +8°C° 0.2 mm 10 m/s 740 mmHg 76%
    18:00 +8°C° 0.2 mm 10 m/s 740 mmHg 77%
    19:00 +9°C° 0.2 mm 10 m/s 739 mmHg 77%
    20:00 +9°C° 0.3 mm 11 m/s 738 mmHg 78%
    21:00 +11°C° 0.3 mm 11 m/s 737 mmHg 78%
    22:00 +11°C° 0.3 mm 11 m/s 737 mmHg 78%
    23:00 +11°C° 0.6 mm 11 m/s 736 mmHg 79%

    Poimâine, 24 Octombrie, Miercuri

    Timp Temperatura Precipitaţii Vânt Presiune Umiditate
    00:00 +10°C° 0.6 mm 12 m/s 735 mmHg 79%
    01:00 +10°C° 0.6 mm 12 m/s 735 mmHg 79%
    02:00 +10°C° 0.9 mm 12 m/s 735 mmHg 77%
    03:00 +9°C° 0.9 mm 12 m/s 735 mmHg 74%
    04:00 +9°C° 0.9 mm 12 m/s 735 mmHg 72%
    05:00 +8°C° 0.1 mm 11 m/s 736 mmHg 71%
    06:00 +6°C° 0.1 mm 10 m/s 737 mmHg 70%
    07:00 +5°C° 0.1 mm 10 m/s 737 mmHg 68%
    08:00 +6°C° 0.1 mm 10 m/s 738 mmHg 66%
    09:00 +6°C° 0.1 mm 10 m/s 739 mmHg 63%
    10:00 +6°C° 0.1 mm 11 m/s 739 mmHg 60%
    11:00 +6°C° 0 mm 11 m/s 740 mmHg 58%
    12:00 +7°C° 0 mm 10 m/s 740 mmHg 55%
    13:00 +7°C° 0 mm 10 m/s 741 mmHg 52%
    14:00 +7°C° 0 mm 9 m/s 741 mmHg 52%
    15:00 +6°C° 0 mm 8 m/s 741 mmHg 52%
    16:00 +6°C° 0 mm 7 m/s 742 mmHg 52%
    17:00 +6°C° 0 mm 7 m/s 742 mmHg 55%
    18:00 +5°C° 0 mm 6 m/s 743 mmHg 58%
    19:00 +5°C° 0 mm 5 m/s 743 mmHg 61%
    20:00 +5°C° 0 mm 5 m/s 743 mmHg 64%
    21:00 +3°C° 0 mm 5 m/s 743 mmHg 67%
    22:00 +4°C° 0 mm 4 m/s 744 mmHg 70%
    23:00 +4°C° 0 mm 4 m/s 743 mmHg 72%

    25 Octombrie, Joi

    Timp Temperatura Precipitaţii Vânt Presiune Umiditate
    00:00 +5°C° 0 mm 4 m/s 743 mmHg 74%
    01:00 +5°C° 0 mm 4 m/s 742 mmHg 77%
    02:00 +6°C° 0.2 mm 4 m/s 742 mmHg 80%
    03:00 +7°C° 0.2 mm 4 m/s 741 mmHg 84%
    04:00 +8°C° 0.2 mm 5 m/s 740 mmHg 87%
    05:00 +8°C° 0.3 mm 6 m/s 740 mmHg 86%
    06:00 +9°C° 0.3 mm 7 m/s 739 mmHg 84%
    07:00 +10°C° 0.3 mm 8 m/s 739 mmHg 82%
    08:00 +10°C° 0.1 mm 8 m/s 739 mmHg 81%
    09:00 +10°C° 0.1 mm 8 m/s 739 mmHg 80%
    10:00 +10°C° 0.1 mm 9 m/s 739 mmHg 79%
    11:00 +10°C° 0.1 mm 9 m/s 739 mmHg 78%
    12:00 +10°C° 0.1 mm 9 m/s 739 mmHg 77%
    13:00 +10°C° 0.1 mm 9 m/s 739 mmHg 77%
    14:00 +10°C° 0.1 mm 8 m/s 739 mmHg 77%
    15:00 +10°C° 0.1 mm 7 m/s 740 mmHg 77%
    16:00 +10°C° 0.1 mm 7 m/s 740 mmHg 77%
    17:00 +9°C° 0.1 mm 6 m/s 740 mmHg 78%
    18:00 +9°C° 0.1 mm 6 m/s 740 mmHg 78%
    19:00 +8°C° 0.1 mm 5 m/s 741 mmHg 79%
    20:00 +7°C° 0 mm 5 m/s 741 mmHg 80%
    21:00 +7°C° 0 mm 4 m/s 741 mmHg 81%
    22:00 +6°C° 0 mm 4 m/s 742 mmHg 83%
    23:00 +6°C° 0 mm 4 m/s 742 mmHg 84%

    26 Octombrie, Vineri

    Timp Temperatura Precipitaţii Vânt Presiune Umiditate
    00:00 +7°C° 0 mm 3 m/s 742 mmHg 85%
    01:00 +5°C° 0 mm 3 m/s 742 mmHg 86%
    02:00 +5°C° 0 mm 3 m/s 741 mmHg 87%
    03:00 +5°C° 0 mm 3 m/s 741 mmHg 88%
    04:00 +5°C° 0 mm 3 m/s 741 mmHg 89%
    05:00 +4°C° 0 mm 3 m/s 741 mmHg 90%
    06:00 +5°C° 0 mm 2 m/s 741 mmHg 91%
    07:00 +5°C° 0 mm 2 m/s 741 mmHg 92%
    08:00 +7°C° 0 mm 2 m/s 741 mmHg 85%
    09:00 +8°C° 0 mm 2 m/s 741 mmHg 79%
    10:00 +10°C° 0 mm 2 m/s 741 mmHg 72%
    11:00 +11°C° 0 mm 3 m/s 740 mmHg 69%
    12:00 +12°C° 0 mm 3 m/s 739 mmHg 66%
    13:00 +13°C° 0 mm 3 m/s 739 mmHg 63%
    14:00 +12°C° 0 mm 3 m/s 738 mmHg 66%
    15:00 +13°C° 0 mm 2 m/s 738 mmHg 69%
    16:00 +13°C° 0 mm 2 m/s 737 mmHg 72%
    17:00 +11°C° 0 mm 3 m/s 737 mmHg 74%
    18:00 +11°C° 0 mm 3 m/s 737 mmHg 76%
    19:00 +10°C° 0 mm 3 m/s 737 mmHg 77%
    20:00 +10°C° 0 mm 3 m/s 736 mmHg 78%
    21:00 +10°C° 0 mm 3 m/s 736 mmHg 79%
    22:00 +10°C° 0 mm 3 m/s 736 mmHg 79%
    23:00 +10°C° 0 mm 3 m/s 736 mmHg 81%

    27 Octombrie, Sâmbătă

    Timp Temperatura Precipitaţii Vânt Presiune Umiditate
    00:00 +9°C° 0 mm 3 m/s 735 mmHg 82%
    01:00 +9°C° 0 mm 2 m/s 735 mmHg 83%
    02:00 +9°C° 0 mm 2 m/s 735 mmHg 84%
    03:00 +9°C° 0 mm 2 m/s 735 mmHg 86%
    04:00 +8°C° 0 mm 2 m/s 735 mmHg 87%
    05:00 +8°C° 0 mm 2 m/s 735 mmHg 87%
    06:00 +8°C° 0 mm 2 m/s 735 mmHg 88%
    07:00 +8°C° 0 mm 2 m/s 735 mmHg 88%
    08:00 +9°C° 0.1 mm 2 m/s 735 mmHg 85%
    09:00 +10°C° 0.1 mm 1 m/s 735 mmHg 81%
    10:00 +11°C° 0.1 mm 1 m/s 735 mmHg 77%
    11:00 +12°C° 0 mm 1 m/s 734 mmHg 75%
    12:00 +12°C° 0 mm 1 m/s 734 mmHg 72%
    13:00 +12°C° 0 mm 1 m/s 733 mmHg 70%
    14:00 +12°C° 0.3 mm 2 m/s 733 mmHg 74%
    15:00 +10°C° 0.3 mm 2 m/s 733 mmHg 78%
    16:00 +10°C° 0.3 mm 3 m/s 732 mmHg 82%
    17:00 +9°C° 1.3 mm 3 m/s 732 mmHg 85%
    18:00 +7°C° 1.3 mm 4 m/s 731 mmHg 88%
    19:00 +7°C° 1.3 mm 4 m/s 731 mmHg 90%
    20:00 +6°C° 1.9 mm 5 m/s 731 mmHg 90%
    21:00 +6°C° 1.9 mm 5 m/s 731 mmHg 90%
    22:00 +6°C° 1.9 mm 5 m/s 730 mmHg 91%
    23:00 +5°C° 1 mm 5 m/s 730 mmHg 90%

    28 Octombrie, Duminică

    Timp Temperatura Precipitaţii Vânt Presiune Umiditate
    00:00 +5°C° 1 mm 5 m/s 730 mmHg 90%
    01:00 +5°C° 1 mm 5 m/s 730 mmHg 89%
    02:00 +5°C° 0.6 mm 5 m/s 730 mmHg 89%
    03:00 +5°C° 0.6 mm 5 m/s 730 mmHg 89%
    04:00 +3°C° 0.6 mm 5 m/s 730 mmHg 88%
    05:00 +3°C° 0.4 mm 5 m/s 730 mmHg 88%
    06:00 +4°C° 0.4 mm 4 m/s 730 mmHg 88%
    07:00 +4°C° 0.4 mm 4 m/s 731 mmHg 88%
    08:00 +4°C° 0.4 mm 4 m/s 731 mmHg 88%
    09:00 +5°C° 0.4 mm 4 m/s 732 mmHg 88%
    10:00 +5°C° 0.4 mm 4 m/s 732 mmHg 88%
    11:00 +5°C° 0.3 mm 3 m/s 733 mmHg 87%
    12:00 +5°C° 0.3 mm 3 m/s 733 mmHg 86%
    13:00 +5°C° 0.3 mm 3 m/s 734 mmHg 84%
    14:00 +5°C° 0.1 mm 3 m/s 734 mmHg 84%
    15:00 +5°C° 0.1 mm 3 m/s 735 mmHg 84%
    16:00 +5°C° 0.1 mm 3 m/s 736 mmHg 83%
    17:00 +4°C° 0 mm 3 m/s 737 mmHg 86%
    18:00 +5°C° 0 mm 2 m/s 737 mmHg 88%
    19:00 +4°C° 0 mm 2 m/s 738 mmHg 90%
    20:00 +4°C° 0 mm 2 m/s 739 mmHg 90%
    21:00 +3°C° 0 mm 2 m/s 739 mmHg 90%
    22:00 +3°C° 0 mm 2 m/s 740 mmHg 89%
    23:00 +3°C° 0 mm 2 m/s 740 mmHg 89%
    Arată mai mult